TimeEDT,TemperatureF,Dew PointF,Humidity,Sea Level PressureIn,VisibilityMPH,Wind Direction,Wind SpeedMPH,Gust SpeedMPH,PrecipitationIn,Events,Conditions,WindDirDegrees,DateUTC
12:29 AM,69.8,64.4,83,30.11,10.0,Calm,Calm,-,N/A,,Scattered Clouds,0,2013-06-10 04:29:00
12:53 AM,68.0,64.0,87,30.09,10.0,Calm,Calm,-,N/A,,Scattered Clouds,0,2013-06-10 04:53:00
1:53 AM,66.9,64.0,90,30.09,10.0,Calm,Calm,-,N/A,,Mostly Cloudy,0,2013-06-10 05:53:00
2:53 AM,66.9,64.9,93,30.06,6.0,Calm,Calm,-,0.08,,Scattered Clouds,0,2013-06-10 06:53:00
3:53 AM,68.0,66.0,93,30.05,4.0,ESE,3.5,-,0.00,Rain,Light Rain,120,2013-06-10 07:53:00
4:28 AM,68.0,66.2,94,30.06,3.0,Calm,Calm,-,0.02,Rain,Light Rain,0,2013-06-10 08:28:00
4:43 AM,68.0,66.2,94,30.06,4.0,Calm,Calm,-,0.02,Rain,Light Rain,0,2013-06-10 08:43:00
4:53 AM,68.0,66.0,93,30.04,6.0,Calm,Calm,-,0.02,,Overcast,0,2013-06-10 08:53:00
5:53 AM,68.0,66.0,93,30.03,5.0,Calm,Calm,-,0.02,Rain,Light Rain,0,2013-06-10 09:53:00
6:53 AM,68.0,66.0,93,30.03,4.0,Calm,Calm,-,0.02,Rain,Light Rain,0,2013-06-10 10:53:00
7:29 AM,68.0,66.2,94,30.04,4.0,Calm,Calm,-,0.04,Rain,Light Rain,0,2013-06-10 11:29:00
7:53 AM,68.0,66.0,93,30.03,4.0,Variable,3.5,-,0.05,Rain,Light Rain,0,2013-06-10 11:53:00
8:53 AM,69.1,66.9,93,30.01,5.0,ESE,4.6,-,0.06,Rain,Light Rain,110,2013-06-10 12:53:00
9:53 AM,69.1,66.9,93,30.00,4.0,SE,4.6,-,0.06,Rain,Light Rain,130,2013-06-10 13:53:00
10:53 AM,70.0,68.0,93,29.98,8.0,SE,4.6,-,0.03,Rain,Light Rain,140,2013-06-10 14:53:00
11:22 AM,69.8,68.0,94,29.98,2.5,SE,3.5,-,0.05,Rain,Rain,130,2013-06-10 15:22:00
11:39 AM,71.6,68.0,88,29.97,3.0,SE,5.8,-,0.09,Rain,Light Rain,140,2013-06-10 15:39:00
11:44 AM,71.6,68.0,88,29.97,2.5,SE,5.8,-,0.12,Rain,Rain,140,2013-06-10 15:44:00
11:48 AM,71.6,68.0,88,29.97,1.8,SE,5.8,-,0.14,Rain,Heavy Rain,140,2013-06-10 15:48:00
11:53 AM,71.1,69.1,93,29.96,1.8,SE,6.9,-,0.15,Rain,Rain,140,2013-06-10 15:53:00
11:58 AM,71.6,69.8,94,29.97,3.0,SSE,8.1,-,0.01,Rain,Light Rain,150,2013-06-10 15:58:00
12:20 PM,71.6,69.8,94,29.95,2.5,SE,5.8,-,0.06,Rain,Rain,130,2013-06-10 16:20:00
12:28 PM,71.6,69.8,94,29.95,4.0,SSE,5.8,-,0.07,Rain,Light Rain,160,2013-06-10 16:28:00
12:53 PM,72.0,70.0,93,29.93,4.0,SSE,4.6,-,0.10,Rain,Light Rain,150,2013-06-10 16:53:00
1:00 PM,71.6,69.8,94,29.93,5.0,SE,5.8,-,0.01,Rain,Light Rain,140,2013-06-10 17:00:00
1:51 PM,73.4,71.6,94,29.90,10.0,South,4.6,-,0.02,Rain,Light Rain,170,2013-06-10 17:51:00
1:53 PM,73.9,71.1,91,29.88,10.0,South,6.9,-,0.02,Rain,Light Rain,180,2013-06-10 17:53:00
2:50 PM,78.8,71.6,78,29.87,10.0,South,8.1,-,0.00,,Mostly Cloudy,180,2013-06-10 18:50:00
2:53 PM,78.1,71.1,79,29.86,10.0,SSW,6.9,-,0.00,,Mostly Cloudy,200,2013-06-10 18:53:00
3:01 PM,78.8,69.8,74,29.87,10.0,South,8.1,-,N/A,,Overcast,170,2013-06-10 19:01:00
3:13 PM,77.0,69.8,78,29.86,10.0,South,6.9,-,N/A,,Overcast,170,2013-06-10 19:13:00
3:21 PM,78.8,71.6,78,29.85,10.0,Variable,5.8,-,N/A,,Overcast,0,2013-06-10 19:21:00
3:28 PM,78.8,69.8,74,29.85,10.0,South,8.1,-,N/A,,Mostly Cloudy,180,2013-06-10 19:28:00
3:53 PM,78.1,70.0,76,29.82,10.0,Variable,3.5,-,N/A,,Overcast,0,2013-06-10 19:53:00
4:53 PM,78.1,69.1,74,29.80,10.0,South,3.5,-,N/A,,Overcast,190,2013-06-10 20:53:00
5:12 PM,77.0,69.8,78,29.81,10.0,South,4.6,-,N/A,,Mostly Cloudy,170,2013-06-10 21:12:00
5:21 PM,77.0,69.8,78,29.80,6.0,South,4.6,-,0.01,Rain,Light Rain,180,2013-06-10 21:21:00
5:26 PM,75.2,71.6,89,29.81,2.0,SW,4.6,-,0.04,Rain,Rain,220,2013-06-10 21:26:00
5:32 PM,75.2,71.6,89,29.80,0.8,West,8.1,-,0.11,Rain,Heavy Rain,260,2013-06-10 21:32:00
5:43 PM,73.4,69.8,88,29.80,1.5,West,8.1,-,0.17,Rain,Rain,270,2013-06-10 21:43:00
5:53 PM,73.0,70.0,90,29.80,2.5,West,9.2,-,0.19,Rain,Light Rain,270,2013-06-10 21:53:00
5:55 PM,73.4,69.8,88,29.81,3.0,Variable,4.6,-,0.00,Rain,Light Rain,0,2013-06-10 21:55:00
5:59 PM,71.6,69.8,94,29.80,3.0,South,6.9,-,0.02,Rain,Rain,170,2013-06-10 21:59:00
6:22 PM,71.6,69.8,94,29.82,6.0,SSW,4.6,-,0.04,Rain,Light Rain,210,2013-06-10 22:22:00
6:53 PM,71.1,68.0,90,29.81,8.0,SSW,5.8,-,0.09,Rain,Light Rain,200,2013-06-10 22:53:00
7:53 PM,70.0,68.0,93,29.79,10.0,SW,5.8,-,0.00,,Scattered Clouds,230,2013-06-10 23:53:00
8:53 PM,70.0,66.9,90,29.81,10.0,SSW,4.6,-,0.00,,Scattered Clouds,200,2013-06-11 00:53:00
9:53 PM,69.1,66.9,93,29.82,10.0,SSE,3.5,-,0.00,,Overcast,150,2013-06-11 01:53:00
10:53 PM,68.0,66.0,93,29.83,10.0,Calm,Calm,-,N/A,,Mostly Cloudy,0,2013-06-11 02:53:00
11:53 PM,66.9,64.9,93,29.83,10.0,Calm,Calm,-,N/A,,Clear,0,2013-06-11 03:53:00